Aérodrome :
LOGIN :

S'inscrire | Disclaimer

   EN    FR    IT 

 










Légende :    VFR   VFR Marginal   IFR   IFR Intensif   IFR Très Intensif
Visi : 
Plafond : 
>= 8 km
>= 3000ft
5 à 8 km
1000 à 3000 ft
1500m à 5 km
500 à 1000 ft
800 à 1500m
200 à 500 ft
< 800m
< 200 ft
Symboles :   Orages  Brouillard  Fortes neiges  Fortes précipitations  Vent > 20 kt
SIGMETs :   Divers  Orages  Givrage  Turbulence  Onde Orograph.  Cendres Volcan.







- Altitude de l'aérodrome : 18 ft
- Code IATA : AJA
- Voir les cartes d'approche


LFKJ - Ajaccio

DERNIER METAR :
  • 190400Z AUTO 05006KT CAVOK 05/02 Q1023 NOSIG

METARs EXPIRÉS :
  • 190330Z AUTO 03007KT CAVOK 05/02 Q1023 NOSIG
  • 190300Z AUTO 04008KT CAVOK 05/02 Q1024 NOSIG
  • 190230Z AUTO 04007KT CAVOK 05/02 Q1024 NOSIG
  • 190200Z AUTO 04007KT CAVOK 05/02 Q1025 NOSIG
  • 190130Z AUTO 04007KT CAVOK 05/02 Q1025 NOSIG

TAF TAF LFKJ
Valide du 19 à 03h jusqu'au 20 à 03h UTC


190200Z 1903/2003 03006KT 9999 FEW025 BKN220
BECMG 1916/1918 RA FEW035TCU
TEMPO 1920/1923 BKN020 FEW030CB BKN070
BECMG 1923/2001 NSW NSC
ATIS : +33 4 95 23 59 85
Pas de NOTAMs connus pour ce terrain.



MET'MAP, la Météo Aéronautique d'un coup d'oeil ! - Copyright ORBIFLY Décembre 2007 - Disclaimer

ORBIFLY MET'MAP TEAM :

Programmation & Développement : Alexandra Zaïnal
Conception & Développement : Baudouin d'Aumeries
Co-Programmation & Développement : Marc-Olivier Méhu
Soutien technique & logistique : Manuel Goepfert

Contact : metmap@orbifly.com




SOURCES & CREDITS :

   NOAA